TimeEST,TemperatureF,Dew PointF,Humidity,Sea Level PressureIn,VisibilityMPH,Wind Direction,Wind SpeedMPH,Gust SpeedMPH,PrecipitationIn,Events,Conditions,WindDirDegrees,DateUTC
12:15 AM,50.0,44.6,82,30.08,10.0,NW,4.6,-,N/A,,Clear,310,2013-02-09 05:15:00
12:35 AM,50.0,42.8,76,30.09,10.0,NW,4.6,-,N/A,,Clear,320,2013-02-09 05:35:00
12:55 AM,50.0,41.0,71,30.09,10.0,Calm,Calm,-,N/A,,Clear,0,2013-02-09 05:55:00
1:15 AM,50.0,39.2,66,30.11,10.0,NNW,4.6,-,N/A,,Clear,330,2013-02-09 06:15:00
1:35 AM,48.2,37.4,66,30.11,10.0,NNW,6.9,-,N/A,,Clear,330,2013-02-09 06:35:00
1:55 AM,46.4,35.6,66,30.11,10.0,NNW,4.6,-,N/A,,Clear,340,2013-02-09 06:55:00
2:15 AM,46.4,35.6,66,30.10,10.0,NNW,3.5,-,N/A,,Clear,340,2013-02-09 07:15:00
2:35 AM,44.6,35.6,71,30.11,10.0,North,3.5,-,N/A,,Clear,360,2013-02-09 07:35:00
2:55 AM,44.6,35.6,71,30.11,10.0,Calm,Calm,-,N/A,,Clear,0,2013-02-09 07:55:00
3:15 AM,44.6,35.6,71,30.13,10.0,Calm,Calm,-,N/A,,Clear,0,2013-02-09 08:15:00
3:35 AM,42.8,35.6,76,30.13,10.0,Calm,Calm,-,N/A,,Clear,0,2013-02-09 08:35:00
3:55 AM,41.0,35.6,81,30.14,10.0,Calm,Calm,-,N/A,,Clear,0,2013-02-09 08:55:00
4:15 AM,37.4,33.8,87,30.15,10.0,Calm,Calm,-,N/A,,Clear,0,2013-02-09 09:15:00
4:35 AM,35.6,33.8,93,30.16,10.0,Calm,Calm,-,N/A,,Clear,0,2013-02-09 09:35:00
4:55 AM,35.6,33.8,93,30.17,10.0,Calm,Calm,-,N/A,,Clear,0,2013-02-09 09:55:00
5:15 AM,33.8,33.8,100,30.18,10.0,Calm,Calm,-,N/A,,Clear,0,2013-02-09 10:15:00
5:35 AM,32.0,32.0,100,30.19,10.0,Calm,Calm,-,N/A,,Clear,0,2013-02-09 10:35:00
5:55 AM,32.0,32.0,100,30.19,10.0,Calm,Calm,-,N/A,,Clear,0,2013-02-09 10:55:00
6:15 AM,33.8,33.8,100,30.20,10.0,Calm,Calm,-,N/A,,Clear,0,2013-02-09 11:15:00
6:35 AM,35.6,35.6,100,30.21,10.0,Calm,Calm,-,N/A,,Clear,0,2013-02-09 11:35:00
6:55 AM,32.0,32.0,100,30.22,10.0,Calm,Calm,-,N/A,,Clear,0,2013-02-09 11:55:00
7:15 AM,32.0,32.0,100,30.23,10.0,West,3.5,-,N/A,,Clear,280,2013-02-09 12:15:00
7:35 AM,32.0,32.0,100,30.24,10.0,Calm,Calm,-,N/A,,Clear,0,2013-02-09 12:35:00
7:55 AM,33.8,33.8,100,30.25,10.0,Calm,Calm,-,N/A,,Clear,0,2013-02-09 12:55:00
8:15 AM,35.6,35.6,100,30.26,10.0,Calm,Calm,-,N/A,,Clear,0,2013-02-09 13:15:00
8:35 AM,37.4,37.4,100,30.27,10.0,Calm,Calm,-,N/A,,Clear,0,2013-02-09 13:35:00
8:55 AM,41.0,37.4,87,30.27,10.0,Calm,Calm,-,N/A,,Clear,0,2013-02-09 13:55:00
9:15 AM,44.6,37.4,76,30.27,10.0,NW,3.5,-,N/A,,Clear,320,2013-02-09 14:15:00
9:35 AM,46.4,35.6,66,30.29,10.0,NW,4.6,-,N/A,,Clear,310,2013-02-09 14:35:00
9:55 AM,46.4,35.6,66,30.29,10.0,NNW,5.8,-,N/A,,Clear,330,2013-02-09 14:55:00
10:15 AM,48.2,35.6,62,30.28,10.0,NW,6.9,-,N/A,,Clear,320,2013-02-09 15:15:00
10:35 AM,50.0,35.6,58,30.29,10.0,NNW,8.1,-,N/A,,Clear,340,2013-02-09 15:35:00
10:55 AM,51.8,35.6,54,30.30,10.0,NW,8.1,-,N/A,,Clear,320,2013-02-09 15:55:00
11:15 AM,51.8,35.6,54,30.30,10.0,NNW,3.5,-,N/A,,Clear,340,2013-02-09 16:15:00
11:35 AM,53.6,33.8,47,30.30,10.0,WNW,6.9,-,N/A,,Clear,290,2013-02-09 16:35:00
11:55 AM,53.6,33.8,47,30.29,10.0,NW,4.6,-,N/A,,Clear,310,2013-02-09 16:55:00
12:15 PM,55.4,32.0,41,30.29,10.0,NNW,5.8,-,N/A,,Clear,340,2013-02-09 17:15:00
12:35 PM,55.4,33.8,44,30.28,10.0,NNW,8.1,-,N/A,,Clear,340,2013-02-09 17:35:00
12:55 PM,55.4,33.8,44,30.27,10.0,North,5.8,-,N/A,,Clear,10,2013-02-09 17:55:00
1:15 PM,57.2,33.8,41,30.27,10.0,NW,8.1,-,N/A,,Clear,320,2013-02-09 18:15:00
1:35 PM,59.0,32.0,36,30.26,10.0,North,3.5,16.1,N/A,,Clear,10,2013-02-09 18:35:00
1:55 PM,57.2,33.8,41,30.26,10.0,West,6.9,-,N/A,,Clear,280,2013-02-09 18:55:00
2:15 PM,59.0,33.8,39,30.26,10.0,NW,6.9,-,N/A,,Clear,320,2013-02-09 19:15:00
2:35 PM,59.0,32.0,36,30.25,10.0,NW,8.1,-,N/A,,Clear,310,2013-02-09 19:35:00
2:55 PM,60.8,32.0,34,30.24,10.0,NNW,3.5,-,N/A,,Clear,340,2013-02-09 19:55:00
3:15 PM,60.8,32.0,34,30.25,10.0,NNW,6.9,-,N/A,,Clear,340,2013-02-09 20:15:00
3:35 PM,60.8,32.0,34,30.25,10.0,NW,8.1,-,N/A,,Clear,320,2013-02-09 20:35:00
3:55 PM,60.8,32.0,34,30.25,10.0,NNW,5.8,-,N/A,,Clear,340,2013-02-09 20:55:00
4:15 PM,60.8,32.0,34,30.25,10.0,NW,6.9,-,N/A,,Clear,320,2013-02-09 21:15:00
4:35 PM,60.8,32.0,34,30.24,10.0,NNW,4.6,-,N/A,,Clear,340,2013-02-09 21:35:00
4:55 PM,60.8,32.0,34,30.24,10.0,North,3.5,-,N/A,,Clear,350,2013-02-09 21:55:00
5:15 PM,60.8,32.0,34,30.25,10.0,Calm,Calm,-,N/A,,Clear,0,2013-02-09 22:15:00
5:35 PM,57.2,35.6,44,30.25,10.0,Calm,Calm,-,N/A,,Clear,0,2013-02-09 22:35:00
5:55 PM,53.6,37.4,54,30.26,10.0,Calm,Calm,-,N/A,,Clear,0,2013-02-09 22:55:00
6:15 PM,51.8,35.6,54,30.26,10.0,Calm,Calm,-,N/A,,Clear,0,2013-02-09 23:15:00
6:35 PM,50.0,33.8,54,30.27,10.0,Calm,Calm,-,N/A,,Clear,0,2013-02-09 23:35:00
6:55 PM,46.4,37.4,71,30.28,10.0,Calm,Calm,-,N/A,,Clear,0,2013-02-09 23:55:00
7:15 PM,44.6,39.2,81,30.29,10.0,Calm,Calm,-,N/A,,Clear,0,2013-02-10 00:15:00
7:35 PM,42.8,39.2,87,30.30,10.0,Calm,Calm,-,N/A,,Clear,0,2013-02-10 00:35:00
7:55 PM,41.0,37.4,87,30.31,10.0,Calm,Calm,-,N/A,,Clear,0,2013-02-10 00:55:00
8:15 PM,41.0,37.4,87,30.31,10.0,Calm,Calm,-,N/A,,Clear,0,2013-02-10 01:15:00
8:35 PM,39.2,37.4,93,30.32,10.0,Calm,Calm,-,N/A,,Clear,0,2013-02-10 01:35:00
9:15 PM,37.4,35.6,93,30.33,10.0,Calm,Calm,-,N/A,,Clear,0,2013-02-10 02:15:00
9:35 PM,37.4,35.6,93,30.34,10.0,Calm,Calm,-,N/A,,Clear,0,2013-02-10 02:35:00
10:35 PM,37.4,35.6,93,30.35,10.0,Calm,Calm,-,N/A,,Clear,0,2013-02-10 03:35:00
10:55 PM,37.4,35.6,93,30.35,10.0,SE,3.5,-,N/A,,Clear,130,2013-02-10 03:55:00
11:15 PM,37.4,37.4,100,30.36,10.0,Calm,Calm,-,N/A,,Clear,0,2013-02-10 04:15:00
11:35 PM,35.6,35.6,100,30.35,10.0,Calm,Calm,-,N/A,,Clear,0,2013-02-10 04:35:00